Location: Atlanta
(33.7490°N, 84.3880°W)
Time: 17:39:14
(UTC-04:00)

Daily predictions for brighter satellites

Satellite Brightness Start Highest point End
(mag) Time Altitude Azimuth Time Altitude Azimuth Time Altitude Azimuth
Resurs 01 Rocket 2.5 20:36:54 10° SE 20:40:46 30° ENE 20:44:40 10° N
Cosmos 2151 Rocket 3.7 20:37:00 10° S 20:41:15 52° E 20:45:31 10° NNE
Envisat 4.1 20:41:07 10° ESE 20:45:14 25° ENE 20:49:20 10° NNE
DELTA 2 R/B (1) 3.9 20:40:26 10° WNW 20:46:00 66° SSW 20:51:32 10° SE
Abrixas 3.0 20:43:51 10° SSW 20:46:09 28° SE 20:48:27 10° ENE
Cosmos 1602 3.6 20:42:26 10° S 20:46:15 72° E 20:50:04 10° N
GENESIS II 4.3 20:43:03 10° NNW 20:46:55 58° ENE 20:50:43 10° SE
Cosmos 2263 Rocket 3.1 20:42:10 10° N 20:47:11 31° ENE 20:52:08 10° ESE
Cosmos 2322 Rocket 2.3 20:44:46 10° SSW 20:50:28 85° WNW 20:56:12 10° NNE
Lacrosse 5 2.1 20:46:27 10° SW 20:51:31 77° NW 20:56:36 10° NE
Cosmos 1536 Rocket 4.0 20:49:07 10° N 20:53:12 39° E 20:57:16 10° SSE
Atlas Centaur 2 3.3 20:46:53 10° W 20:55:20 63° SSW 21:02:22 13° ESE
ATLAS 2AS CENTAUR R/B 3.0 20:49:19 10° SSW 20:56:49 76° ESE 21:04:52 10° NNE
SL-16 R/B 2.8 20:58:32 10° SSW 21:04:08 64° WNW 21:09:46 10° NNE
Helios 1B rocket 3.9 21:05:05 10° NE 21:07:44 17° E 21:08:10 16° ESE
Centaur AC-116 4.3 21:03:13 10° WSW 21:10:37 27° S 21:12:37 17° SE
Meteor 1-11 Rocket 3.8 21:05:56 10° S 21:11:47 90° E 21:17:32 10° N
FALCON 9 R/B 4.1 21:08:48 10° SSE 21:19:39 - E 21:10:18 13° SE
Cosmos 1110 Rocket 4.1 21:08:48 10° S 21:13:44 49° ESE 21:18:43 10° NNE
GPS 2-05 Rocket1 2.7 21:12:07 10° W 21:15:33 74° SSW 21:17:20 25° ESE
Cosmos 2322 3.9 21:12:11 10° S 21:17:36 49° ESE 21:23:02 10° NNE
SJ-6B 4.4 21:13:57 10° SSW 21:17:42 37° W 21:21:33 10° NNW
Delta 2 Rocket 3.3 21:15:32 10° W 21:19:21 74° N 21:22:33 17° ENE
Cosmos 2360 Rocket 2.1 21:16:12 10° S 21:21:46 68° ESE 21:27:22 10° NNE
SeaSat 1 2.4 21:19:20 10° NNE 21:24:12 59° ESE 21:29:03 10° SSW
Cosmos 1331 Rocket 4.0 21:19:47 10° S 21:24:49 56° ESE 21:29:55 10° NNE
Meteor 1-23 Rocket 4.4 21:22:14 10° N 21:27:40 52° E 21:31:40 18° SSE
Cosmos 482 Debris 4.2 21:22:35 10° SW 21:28:09 86° SE 21:31:10 11° NE
Cosmos 1850 Rocket 4.0 21:25:20 10° NNW 21:30:40 85° WSW 21:35:25 13° SSE
COSMOS 2428 3.3 21:25:42 10° SSE 21:30:44 33° ESE 21:35:47 10° NE
Meteosat 1 Rocket2 3.9 21:31:33 10° WSW 21:36:01 49° S 21:38:59 28° ESE
Resurs 1-3 4.0 21:31:43 10° S 21:36:03 65° WSW 21:40:25 10° NNW
Cosmos 220 Rocket 4.0 21:36:06 10° N 21:40:24 64° ENE 21:42:04 35° SE
Meteor 1-5 Rocket 4.1 21:38:12 10° S 21:43:32 80° W 21:48:50 10° N
Cosmos 2333 Rocket 4.2 21:47:12 11° ENE 21:47:12 11° ENE 21:47:34 10° ENE
Cosmos 883 Rocket 4.4 21:40:42 10° N 21:46:50 76° E 21:51:30 18° SSE
USA 186 3.3 21:45:51 13° SSW 21:48:35 36° W 21:51:44 10° NNW
Cosmos 1536 4.2 21:45:02 10° SSW 21:48:51 39° W 21:52:41 10° N
Cosmos 2333 4.4 21:43:47 10° S 21:49:07 44° ESE 21:54:26 10° NE
Cosmos 1025 Rocket 3.1 21:45:46 10° N 21:49:57 54° E 21:50:37 48° ESE
Cosmos 1607 4.0 21:44:23 10° NNW 21:50:53 88° NE 21:54:25 29° SSE
Okean 1 Rocket 3.4 21:46:39 10° SSW 21:50:56 63° W 21:55:17 10° N
Cosmos 1939 Rocket 2.7 21:51:35 38° S 21:53:03 85° W 21:56:59 10° NNW
Spot 2 Rocket 4.4 21:49:35 10° S 21:54:30 48° W 21:59:26 10° NNW
Cosmos 1244 Rocket 4.5 21:53:50 25° SSE 21:57:25 58° E 22:03:25 10° NNE
USA 238 DEB 4.2 21:51:46 10° NNW 21:58:35 47° NE 22:01:04 35° E
USA 238 4.2 21:51:52 10° NNW 21:58:41 47° NE 22:01:09 35° E
Tiangong 1 2.1 21:56:05 10° WNW 21:58:00 40° WNW 21:58:00 40° WNW
Meteor 2-4 Rocket 4.4 21:53:35 10° NNW 21:59:04 54° W 22:04:41 10° S
Helios 1A 2.9 22:01:08 63° ESE 22:01:33 69° ENE 22:05:47 10° N
Cosmos 1818 3.4 22:00:23 10° SSW 22:05:47 80° ESE 22:11:14 10° NNE
ERS-1 Rocket 3.3 22:06:57 44° ENE 22:07:02 44° ENE 22:11:48 10° N
OAO 1 Rocket 4.5 22:02:39 10° W 22:08:01 78° N 22:09:26 49° ENE
ATLAS 3B R/B 2.6 22:01:35 10° NNW 22:08:10 61° ENE 22:09:58 45° ESE
Cosmos 1238 Rocket 4.1 22:03:01 10° N 22:09:21 48° E 22:10:05 46° E
YAOGAN 6 2.8 22:10:08 67° WNW 22:10:08 67° WNW 22:13:26 10° NNW
ARGOS 3.8 22:12:31 36° ENE 22:12:31 36° ENE 22:17:08 10° N
USA 267 3.9 22:10:53 26° S 22:14:17 48° SW 22:20:36 10° NW
ASTRO E2 4.2 22:12:06 10° WSW 22:14:09 26° SW 22:14:09 26° SW
Okean 1-7 Rocket 3.7 22:11:48 10° N 22:16:18 75° W 22:16:59 61° SSW
Resurs 01 Rocket 4.1 22:14:01 10° SW 22:17:14 19° W 22:20:28 10° NW
SPOT 5 4.1 22:31:51 30° NNE 22:31:51 30° NNE 22:34:36 10° N
Cosmos 2263 Rocket 3.7 22:26:05 10° NW 22:30:58 30° WSW 22:34:06 18° SSW
Aureole 3 Rocket 3.8 22:23:51 10° N 22:31:20 69° E 22:31:40 67° ESE
MetOp-B 4.1 22:37:45 73° NNE 22:37:45 73° NNE 22:42:44 10° N
Cosmos 1844 Rocket 3.0 22:31:50 10° NNW 22:36:49 53° NE 22:36:49 53° NE
Cosmos 2278 Rocket 3.9 22:35:04 10° N 22:38:10 20° NE 22:38:10 20° NE
Helios 1B rocket 4.2 22:39:26 10° N 22:43:02 30° WNW 22:44:31 23° WSW
Atlas Centaur 2 3.7 22:37:22 10° W 22:44:34 34° SSW 22:45:00 34° SSW
H-2A R/B 3.1 22:46:54 34° NNE 22:46:54 34° NNE 22:49:55 10° N
Cosmos 2219 Rocket 2.4 22:50:02 63° N 22:50:02 63° N 22:54:47 10° NNE
Cosmos 1745 Rocket 3.9 22:50:53 73° NNE 22:50:53 73° NNE 22:56:29 10° N
CENTAUR R/B 4.5 22:49:11 10° N 22:55:11 23° NE 22:56:35 22° ENE
NOSS 3-4 (A) 3.6 22:52:25 10° SW 22:58:40 73° WNW 23:05:05 10° NNE
NOSS 3-4 (C) 3.5 22:52:31 10° SW 22:58:47 74° WNW 23:05:12 10° NNE
Terra 4.1 23:04:46 16° NNE 23:04:46 16° NNE 23:05:55 10° N
COSMOS 2428 4.5 23:10:00 10° WSW 23:14:55 29° WNW 23:19:53 10° N
Cosmos 2333 Rocket 3.4 23:29:06 38° NNW 23:29:06 38° NNW 23:32:59 10° N
Cosmos 2237 Rocket 4.0 23:42:11 24° N 23:42:11 24° N 23:44:26 10° NNE
NOSS 3-2 (A) 4.3 23:38:33 10° NW 23:45:10 61° WNW 23:45:10 61° WNW
